FW3299 Weather Reports


Display with metric or nautical units.
time (UTC)temp
F
wind
direction
speed
MPH
gust
MPH
rain 1hr
in
rain 24hr
in
rain mn
in
humidity
%
barometer
mb
20260504151019 77 23 5.0 10.0 0.00 0.00 0.00 48 1016.9
20260504141019 75 45 6.0 13.0 0.00 0.00 0.00 60 1016.9
20260504081039 62 0 1.0 2.0 0.00 0.00 0.00 85 1015.4
20260504050018 66 0.0 2.0 0.00 0.00 0.00 78 1016.5
20260504045038 66 0.0 2.0 0.00 0.00 0.00 78 1016.6
20260504044018 66 0.0 2.0 0.00 0.00 0.00 77 1016.7
20260504043018 66 0.0 2.0 0.00 0.00 0.00 77 1016.7
20260504042039 67 0 1.0 3.0 0.00 0.00 0.00 77 1016.8
20260504041018 67 0 2.0 4.0 0.00 0.00 0.00 77 1016.7
20260504040018 67 0.0 5.0 0.00 0.02 0.00 77 1016.7
20260504035019 67 0 2.0 5.0 0.00 0.02 0.00 76 1016.8
20260504034019 67 0 1.0 5.0 0.00 0.02 0.00 76 1016.7
20260504033019 67 0 1.0 4.0 0.00 0.02 0.00 76 1016.8
20260504032039 67 0 2.0 6.0 0.00 0.02 0.00 76 1016.9
20260504031019 67 0 2.0 5.0 0.00 0.02 0.00 75 1016.8
20260504030019 68 0 2.0 5.0 0.00 0.02 0.00 75 1016.7
20260504025019 68 0 2.0 5.0 0.00 0.02 0.00 75 1016.6
20260504024019 68 0 3.0 9.0 0.00 0.02 0.00 75 1016.7
20260504023019 68 0 3.0 8.0 0.00 0.02 0.00 75 1016.7
20260504022019 68 0 2.0 5.0 0.00 0.02 0.00 75 1016.5
20260504021039 68 0 3.0 6.0 0.00 0.02 0.00 75 1016.5
20260504020019 68 0 2.0 5.0 0.00 0.02 0.00 75 1016.3
20260504015019 69 0 3.0 10.0 0.00 0.02 0.00 75 1016.2
20260504014019 69 0 3.0 8.0 0.00 0.02 0.00 75 1016.2
20260504013019 69 0 3.0 8.0 0.00 0.02 0.00 74 1016.1
20260504012019 69 0 3.0 9.0 0.00 0.02 0.00 74 1015.9
20260504011019 70 0 3.0 8.0 0.00 0.02 0.00 73 1015.8
20260504010019 70 0 3.0 9.0 0.00 0.02 0.00 72 1015.7
20260504005019 70 0 4.0 9.0 0.00 0.02 0.00 71 1015.7
20260504004039 71 0 3.0 8.0 0.00 0.02 0.00 71 1015.7
20260504003019 71 0 3.0 11.0 0.00 0.02 0.00 70 1015.5
20260504002019 71 0 2.0 8.0 0.00 0.02 0.00 69 1015.4
20260504001019 72 0 3.0 9.0 0.00 0.02 0.00 68 1015.3
20260504000019 72 0 3.0 9.0 0.00 0.02 0.00 67 1015.3
20260503235019 73 0 5.0 9.0 0.00 0.02 0.00 66 1015.2
20260503234019 73 68 3.0 9.0 0.00 0.02 0.00 66 1015.1
20260503233019 73 68 5.0 11.0 0.00 0.02 0.00 65 1015.1
20260503232039 74 68 3.0 11.0 0.00 0.02 0.00 65 1015.0
20260503231026 74 68 3.0 12.0 0.00 0.02 0.00 64 1014.8
20260503230019 74 45 3.0 9.0 0.00 0.02 0.00 63 1015.0
20260503225019 75 90 3.0 9.0 0.00 0.02 0.00 64 1015.0
20260503224019 75 90 4.0 13.0 0.00 0.02 0.00 63 1014.9
20260503223019 75 23 4.0 7.0 0.00 0.02 0.00 61 1015.0
20260503222019 76 68 3.0 9.0 0.00 0.02 0.00 61 1014.9
20260503221019 76 45 4.0 10.0 0.00 0.02 0.00 60 1015.0
20260503220039 77 23 4.0 10.0 0.00 0.02 0.00 59 1014.8
20260503215019 77 45 5.0 9.0 0.00 0.04 0.00 58 1014.8
20260503214039 77 45 3.0 7.0 0.00 0.04 0.00 58 1014.8
20260503213039 75 90 2.0 6.0 0.00 0.04 0.00 62 1014.9
20260503212019 76 23 4.0 10.0 0.00 0.04 0.00 59 1014.8
20260503211019 79 90 4.0 11.0 0.00 0.04 0.00 58 1014.7
20260503210019 79 23 4.0 13.0 0.00 0.04 0.00 58 1014.9
20260503205019 78 45 4.0 10.0 0.00 0.12 0.00 56 1014.9
20260503204019 78 45 5.0 10.0 0.00 0.12 0.00 57 1015.1
20260503203019 77 23 2.0 4.0 0.00 0.12 0.00 62 1015.1
20260503202019 78 23 2.0 8.0 0.00 0.12 0.00 61 1015.2
20260503201019 77 23 2.0 10.0 0.00 0.12 0.00 62 1015.3
20260503200019 77 23 3.0 9.0 0.00 0.12 0.00 63 1015.2
20260503195019 77 23 3.0 9.0 0.00 0.26 0.00 65 1015.4
20260503194019 77 23 3.0 9.0 0.00 0.26 0.00 63 1015.6
20260503193019 77 23 3.0 8.0 0.00 0.26 0.00 61 1015.8
20260503192019 79 68 4.0 13.0 0.00 0.26 0.00 60 1016.0
20260503191019 78 68 6.0 10.0 0.00 0.26 0.00 60 1016.3
20260503190019 78 23 3.0 12.0 0.00 0.26 0.00 62 1016.4
20260503185039 77 23 5.0 13.0 0.00 0.28 0.00 62 1016.5
20260503184019 79 23 3.0 7.0 0.00 0.28 0.00 62 1016.4
20260503183019 76 23 2.0 5.0 0.00 0.28 0.00 66 1016.8
20260503182019 78 45 3.0 10.0 0.00 0.28 0.00 64 1016.8
20260503181019 77 0 5.0 12.0 0.00 0.28 0.00 63 1016.8
20260503180019 76 68 3.0 8.0 0.00 0.28 0.00 67 1016.9
20260503175019 75 90 5.0 10.0 0.00 0.28 0.00 67 1017.0
20260503174019 76 90 4.0 10.0 0.00 0.28 0.00 67 1017.1
20260503173019 75 68 4.0 11.0 0.00 0.28 0.00 67 1017.3
20260503172019 74 23 6.0 12.0 0.00 0.28 0.00 68 1017.4
20260503171019 75 23 3.0 6.0 0.00 0.28 0.00 69 1017.3